This demonstration page uses our WeatherBlox Daily Observations layout. Learn more.

Left ArrowRight Arrow

39.12711, -84.51439

Hourly Observations for March 31, 2021

Temp ( °F °C ) Dew Point ( °F °C ) Humidity (%) Winds ( mph kmh ) Pressure ( in mb ) Visibility ( mi km ) Precip ( " mm )
12:53 am 00:53 Cloudy with Light Rain 57 13.9 54 12.2 90 90 SSW 8 13 29.96 1014 8 12.87472 0.02 0.508
1:53 am 01:53 Cloudy with Light Rain 57 13.9 54 12.2 90 90 SSW 6 9 29.94 1014 10 16.0934 0.03 0.762
2:53 am 02:53 Cloudy with Rain 57 13.9 55 12.8 93 93 SSW 9 15 29.93 1014 4 6.43736 0.07 1.778
3:34 am 03:34 Cloudy with Light Rain 58 14.4 56 13.3 93 93 W 6 9 29.93 1014 7 11.26538 0.05 1.27
3:53 am 03:53 Cloudy with Light Rain 58 14.4 56 13.3 93 93 W 7 11 29.91 1013 10 16.0934 0.06 1.524
4:53 am 04:53 Cloudy with Light Rain 57 13.9 56 13.3 96 96 WSW 5 7 29.94 1014 5 8.0467 0.01 0.254
5:33 am 05:33 Cloudy with Light Rain 51 10.6 47 8.3 86 86 NNW 16 26 30 1016 7 11.26538 0.02 0.508
5:53 am 05:53 Cloudy 49 9.4 45 7.2 86 86 NW 15 24 29.99 1016 9 14.48406 0.02 0.508
6:20 am 06:20 Cloudy 49 9.4 44 6.7 83 83 NW 7 11 30.03 1017 10 16.0934 0 0
6:53 am 06:53 Cloudy 49 9.4 42 5.6 77 77 NW 7 11 30.05 1018 10 16.0934 0 0
7:53 am 07:53 Cloudy 49 9.4 41 5 74 74 NNW 7 11 30.08 1019 10 16.0934 0 0
8:53 am 08:53 Cloudy 47 8.3 36 2.2 66 66 WNW 10 17 30.11 1020 10 16.0934 0 0
9:53 am 09:53 Cloudy 47 8.3 35 1.7 63 63 NW 10 17 30.12 1020 10 16.0934 0 0
10:53 am 10:53 Mostly Cloudy 47 8.3 33 0.6 59 59 W 14 22 30.15 1021 10 16.0934 0 0
11:53 am 11:53 Mostly Cloudy 47 8.3 26 -3.3 44 44 WNW 10 17 30.16 1022 10 16.0934 0 0
12:53 pm 12:53 Partly Cloudy 49 9.4 30 -1.1 48 48 W 13 20 30.16 1022 10 16.0934 0 0
1:53 pm 13:53 Sunny 53 11.7 29 -1.7 40 40 VRB 5 7 30.14 1021 10 16.0934 0 0
2:53 pm 14:53 Sunny 53 11.7 25 -3.9 34 34 W 16 26 30.12 1020 10 16.0934 0 0
3:53 pm 15:53 Sunny 52 11.1 22 -5.6 31 31 W 14 22 30.13 1020 10 16.0934 0 0
4:53 pm 16:53 Mostly Sunny 49 9.4 19 -7.2 31 31 W 15 24 30.15 1021 10 16.0934 0 0
5:53 pm 17:53 Mostly Cloudy 48 8.9 22 -5.6 36 36 WNW 10 17 30.17 1022 10 16.0934 0 0
6:53 pm 18:53 Mostly Sunny 48 8.9 21 -6.1 34 34 NW 9 15 30.17 1022 10 16.0934 0 0
7:53 pm 19:53 Sunny 47 8.3 20 -6.7 34 34 NNW 13 20 30.18 1022 10 16.0934 0 0
8:53 pm 20:53 Clear 46 7.8 21 -6.1 37 37 NW 9 15 30.19 1022 10 16.0934 0 0
9:53 pm 21:53 Clear 44 6.7 18 -7.8 35 35 NNW 14 22 30.24 1024 10 16.0934 0 0
10:53 pm 22:53 Mostly Clear 42 5.6 17 -8.3 36 36 NW 14 22 30.26 1025 10 16.0934 0 0
11:53 pm 23:53 Clear 40 4.4 17 -8.3 40 40 NNW 9 15 30.29 1026 10 16.0934 0 0

Powered by AerisWeather